Home > Weather > Rabat > Past weeks

Flag for Morocco Past Weather in Rabat, Morocco — Yesterday and Last 2 Weeks

Now
75 °F

Partly sunny.


Feels Like: 77 °F
Forecast: 59 / 74 °F
Wind: 8 mph from Northwest

Location: Rabat-Sale

Current Time: Jun 30, 2016 at 5:45:16 PM

Latest Report: Jun 30, 2016 at 5:00 PM


Visibility: 5 mi

Pressure: 30.01 "Hg

Humidity: 69%

Dew Point: 64 °F

Location of RabatLocation

Past Weather in Rabat — Graph

°F

Rabat Temperature Yesterday

Maximum temperature yesterday: 79 °F (at 12:00 PM)
Minimum temperature yesterday: 64 °F (at 4:00 AM)
Average temperature yesterday: 72 °F

High & Low Weather Summary for the Past Weeks

 TemperatureHumidityPressure
High88 °F (Jun 21, 2:30 PM)94% (Jun 17, 2:30 AM)30.18 "Hg (Jun 17, 2:30 AM)
Low54 °F (Jun 18, 3:00 AM)27% (Jun 21, 2:30 PM)29.86 "Hg (Jun 21, 1:30 PM)
Average70 °F73%30.01 "Hg
* Reported Jun 15 4:00 PM — Jun 30 4:00 PM, Rabat, Weather by CustomWeather, © 2016

Note: Actual official high and low records may vary slightly from our data, if they occured in-between our weather recording intervals... More about our weather records

Advertising

Rabat Weather History for the Previous 24 Hours

Scroll right to see more
 ConditionsComfort  
Time TempWeatherWind HumidityBarometerVisibility
4:00 PM
Thu, Jun 30
75 °FPartly sunny.8 mph69%30.01 "Hg5 mi
3:30 PM75 °FPartly sunny.10 mph69%30.01 "Hg4 mi
3:00 PM75 °FPartly sunny.10 mph69%30.04 "Hg4 mi
2:30 PM75 °FPartly sunny.9 mph69%30.04 "Hg4 mi
2:00 PM75 °FPartly sunny.10 mph69%30.04 "Hg4 mi
1:30 PM75 °FPartly sunny.9 mph69%30.04 "Hg4 mi
1:00 PM77 °FPartly sunny.9 mph65%30.04 "Hg4 mi
12:30 PM75 °FPartly sunny.9 mph69%30.04 "Hg4 mi
11:30 AM73 °FBroken clouds.9 mph78%30.07 "Hg4 mi
11:00 AM75 °FBroken clouds.8 mph74%30.07 "Hg4 mi
10:30 AM73 °FBroken clouds.7 mph78%30.07 "Hg4 mi
10:00 AM72 °FBroken clouds.7 mph83%30.07 "Hg4 mi
9:30 AM72 °FBroken clouds.6 mph83%30.07 "Hg4 mi
9:00 AM73 °FBroken clouds.6 mph78%30.04 "Hg4 mi
8:30 AM73 °FBroken clouds.5 mph78%30.04 "Hg4 mi
8:00 AM72 °FBroken clouds.5 mph83%30.04 "Hg3 mi
7:30 AM73 °FBroken clouds.5 mph78%30.04 "Hg3 mi
7:00 AM72 °FBroken clouds.6 mph83%30.04 "Hg3 mi
6:30 AM72 °FBroken clouds.6 mph83%30.04 "Hg3 mi
6:00 AM72 °FBroken clouds.6 mph83%30.04 "Hg3 mi
5:30 AM72 °FPartly sunny.6 mph83%30.04 "Hg3 mi
5:00 AM72 °FPartly sunny.5 mph73%30.01 "Hg3 mi
4:30 AM72 °FPartly sunny.5 mph73%30.01 "Hg3 mi
4:00 AM70 °FPassing clouds.5 mph83%30.01 "Hg3 mi
3:30 AM70 °FPassing clouds.5 mph83%30.01 "Hg3 mi
3:00 AM68 °FPassing clouds.2 mph83%30.01 "Hg3 mi
2:30 AM70 °FPassing clouds.5 mph78%30.01 "HgN/A
2:00 AM70 °FPassing clouds.6 mph78%30.01 "Hg3 mi
1:30 AM70 °FPassing clouds.10 mph78%30.01 "Hg3 mi
1:00 AM70 °FPassing clouds.7 mph78%30.01 "Hg3 mi
12:30 AM72 °FPassing clouds.6 mph78%30.04 "Hg3 mi
12:00 AM72 °FPassing clouds.8 mph78%30.04 "Hg3 mi
11:30 PM
Wed, Jun 29
72 °FPassing clouds.8 mph78%30.04 "Hg4 mi
11:00 PM72 °FPassing clouds.9 mph78%30.04 "Hg4 mi
10:30 PM72 °FPassing clouds.9 mph78%30.04 "Hg4 mi
10:00 PM72 °FPassing clouds.7 mph78%30.04 "Hg4 mi
9:30 PM72 °FPassing clouds.7 mph78%30.04 "Hg4 mi
9:00 PM72 °FPassing clouds.7 mph78%30.01 "Hg4 mi
8:30 PM70 °FPassing clouds.8 mph83%30.01 "Hg4 mi
8:00 PM72 °FPassing clouds.9 mph78%30.01 "Hg4 mi
7:30 PM72 °FPassing clouds.9 mph78%30.01 "Hg5 mi
7:00 PM72 °FPartly cloudy.9 mph78%29.98 "Hg5 mi
6:30 PM73 °FBroken clouds.9 mph74%29.98 "Hg5 mi
6:00 PM73 °FPartly sunny.12 mph74%29.98 "Hg5 mi
5:30 PM75 °FPartly sunny.10 mph69%29.98 "Hg5 mi
5:00 PM75 °FScattered clouds.12 mph74%29.98 "Hg4 mi
Weather by CustomWeather, © 2016

See weather overviewHow to use our weather pages